This is the latest recevied weather packets stored in our database for station/object R1CBW-13. If no packets are shown the sender has not sent any weather packets the latest 10 day(s).
| Time | Temp. | Humidity | Pressure | Rain* | Wind** | Luminosity | Snow |
|---|---|---|---|---|---|---|---|
| 1778322873 | 11.67° C | 27% | 1027.4 hPa | 0 mm | - | - | - |
| 1778322813 | 11.67° C | 27% | 1027.4 hPa | 0 mm | - | - | - |
| 1778322752 | 11.67° C | 27% | 1027.7 hPa | 0 mm | - | - | - |
| 1778322692 | 12.22° C | 27% | 1027.5 hPa | 0 mm | - | - | - |
| 1778322633 | 11.67° C | 27% | 1027.6 hPa | 0 mm | - | - | - |
| 1778322572 | 11.67° C | 28% | 1027.5 hPa | 0 mm | - | - | - |
| 1778322512 | 12.22° C | 27% | 1027.5 hPa | 0 mm | - | - | - |
| 1778322452 | 11.67° C | 28% | 1027.6 hPa | 0 mm | - | - | - |
| 1778322392 | 11.11° C | 29% | 1027.7 hPa | 0 mm | - | - | - |
| 1778322332 | 11.67° C | 29% | 1027.5 hPa | 0 mm | - | - | - |
| 1778322272 | 11.67° C | 29% | 1027.8 hPa | 0 mm | - | - | - |
| 1778322212 | 11.67° C | 29% | 1027.6 hPa | 0 mm | - | - | - |
| 1778322152 | 11.67° C | 29% | 1027.6 hPa | 0 mm | - | - | - |
| 1778322092 | 11.67° C | 29% | 1027.7 hPa | 0 mm | - | - | - |
| 1778322032 | 11.11° C | 30% | 1027.8 hPa | 0 mm | - | - | - |
| 1778321973 | 11.11° C | 30% | 1027.8 hPa | 0 mm | - | - | - |
| 1778321912 | 11.67° C | 30% | 1027.7 hPa | 0 mm | - | - | - |
| 1778321852 | 11.67° C | 30% | 1027.7 hPa | 0 mm | - | - | - |
| 1778321792 | 11.67° C | 30% | 1027.6 hPa | 0 mm | - | - | - |
| 1778321732 | 11.11° C | 30% | 1027.7 hPa | 0 mm | - | - | - |
| 1778321672 | 11.67° C | 29% | 1027.7 hPa | 0 mm | - | - | - |
| 1778321612 | 11.67° C | 30% | 1027.7 hPa | 0 mm | - | - | - |
| 1778321552 | 11.11° C | 30% | 1027.7 hPa | 0 mm | - | - | - |
| 1778321492 | 12.22° C | 29% | 1027.7 hPa | 0 mm | - | - | - |
| 1778321432 | 12.22° C | 29% | 1027.6 hPa | 0 mm | - | - | - |
* Rain latest hour (hover to see other rain measurements)
** Current wind speed in m/s (hover to see current wind gust speed)